CZ-6A DEB, 56673

Orbit data source: Space-Track

CZ-6A DEB, 56673 is space debris in SSO originally from a launch on Fri, 11 Nov 2022 UTC launched from the Taiyaun Space Center, China (TSC). Debris objects in space refer to the collection of defunct objects orbiting the Earth. Examples of debris include non-operational satellites, rocket bodies, and fragments generated from explosions, collisions, or faulty payload assembly.

Loading next visibility...
Identifier
56673, 2022-151AGZ
Orbit
SSO
Country
Flag of CNCN / PRC
Related business
Manufacturer
SAST
Mission
Spacecraft
Bus & Motor
Unknown
Mass
Unknown
Launch date (UTC)
2022-11-11 (3 years ago)
Launch vehicle
Unknown
Launch site
Taiyaun Space Center, China (TSC)
Object type
Payload
Rocket body
Debris
Shape & HBR
Unknown shape, 0.1 m
Radar Cross Section
Small (<0.1 m²)

Expand to show TLE details & history
Last TLE update: 15 hours ago

TLE from 15 hours ago
0 CZ-6A DEB
1 56673U 22151AGZ 26130.06540531  .00003018  00000-0  10175-2 0  9992
2 56673  98.7369 164.8310 0034707  68.3950 292.0928 14.37410359 90442
Epoch: 2026-05-10T01:34Z
TLE epoch observation values (Epoch: 2026-05-10T01:34:11.018Z)
Latitude
-0.00005°
Longitude
-86.58874°
Altitude
760.75 km
Speed
7.479 km/s
True Right ascension
10h 59m 19s
True Declination
0° 00' 00"
Sunlit
Object was in partial shadow at epoch
Visualization orbit readout
Latitude
Unknown
Longitude
Unknown
Altitude
Unknown
Speed
Unknown
Apparent Right ascension
Unknown
Apparent Declination
Unknown
Sunlit
N/A
Visualization observer readout
Local Sidereal Time
00:22:00
Azimuth
Unknown
Elevation
Unknown
Doppler factor
Unknown
Orbital elements
Apogee altitude
788.993 km
Perigee altitude
739.415 km
Semi-major axis
7,142.341 km
Eccentricity
0.00347
Inclination
98.7369°
RAAN
164.831°
Arg. of periapsis
68.395°
True anomaly
291.72369°
Mean anomaly
292.0928°
Eccentric anomaly
291.9083°
Mean motion
3.59569 °/min
Orbital period
100.12 mins
BSTAR
0.0010175
Loading maneuver chart data...
Computing Atmospheric mass density...
Loading historical data...
Loading historical data...
Loading historical data...
Loading historical data...
Loading historical data...
Loading historical data...
Loading historical data...

Documentation

Showing up to 5 results
|